Weather History for Salamanca, Spain

Change the Weather History Date:

Monday, July 1, 2013

  Actual Average Record
Temperature  
Mean Temperature 72 °F -  
Max Temperature 92 °F - - ()
Min Temperature 53 °F - - ()
Cooling Degree Days 8    
Growing Degree Days 22 (Base 50)    
Moisture  
Dew Point 47 °F    
Average Humidity 44    
Maximum Humidity 88    
Minimum Humidity 12    
Precipitation  
Precipitation 0.00 in 0.02 in - ()
Sea Level Pressure  
Sea Level Pressure 30.03 in    
Wind  
Wind Speed 5 mph ()    
Max Wind Speed 29 mph    
Max Gust Speed 41 mph    
Visibility 6.8 miles    
Events      
T = Trace of Precipitation, MM = Missing Value Source: Averaged Metar Reports

Daily Weather History Graph

Daily Weather History Graph

Search for Another Location

Airport:

Trip Planner

Search our weather history database for the weather conditions in past years. The results will help you decide how hot, cold, wet, or windy it might be!

Date:

Astronomy

Jul. 01, 2013 Rise Set
Actual Time 6:53 AM CEST 9:57 PM CEST
Civil Twilight 6:20 AM CEST 10:31 PM CEST
Nautical Twilight 5:37 AM CEST 11:13 PM CEST
Astronomical Twilight 4:47 AM CEST 12:03 AM CEST
Moon 2:18 AM CEST (7/1) 3:57 PM CEST (7/1)
Length of Visible Light 16h 10m
Length of Day
15h 04m
Last Quarter, 38% of the Moon is Illuminated
Jul 1
Last Quarter
Jul 8
New
Jul 16
First Quarter
Jul 22
Full
Jul 29
Last Quarter

Hourly Weather History & Observations

Time (CEST) Temp. Heat Index Dew Point Humidity Pressure Visibility Wind Dir Wind Speed Gust Speed Precip Events Conditions
12:00 AM 69.8 °F - 39.2 °F 33% 30.09 in - Calm Calm - N/A   Clear
12:30 AM 69.8 °F - 46.4 °F 43% 30.09 in - ENE 5.8 mph - N/A   Clear
1:00 AM 71.6 °F - 48.2 °F 43% 30.09 in - East 9.2 mph - N/A   Clear
1:30 AM 68.0 °F - 48.2 °F 49% 30.09 in - SE 8.1 mph - N/A   Clear
2:00 AM 64 °F - 50 °F 51%  in 9 mi Calm Calm - -  
2:00 AM 62.6 °F - 50.0 °F 63% 30.09 in - Calm Calm - N/A   Clear
2:30 AM 62.6 °F - 48.2 °F 59% 30.09 in - Calm Calm - N/A   Clear
3:00 AM 60.8 °F - 51.8 °F 72% 30.06 in - Calm Calm - N/A   Clear
3:30 AM 59.0 °F - 51.8 °F 77% 30.06 in - Calm Calm - N/A   Clear
4:00 AM 59.0 °F - 51.8 °F 77% 30.06 in - Variable 2.3 mph - N/A   Clear
4:30 AM 59.0 °F - 50.0 °F 72% 30.06 in - Calm Calm - N/A   Clear
5:00 AM 57.2 °F - 51.8 °F 82% 30.06 in - Variable 1.2 mph - N/A   Clear
5:30 AM 59.0 °F - 50.0 °F 72% 30.04 in - Variable 2.3 mph - N/A   Clear
6:00 AM 55.4 °F - 51.8 °F 88% 30.06 in - Variable 2.3 mph - N/A   Clear
6:30 AM 53.6 °F - 50.0 °F 88% 30.06 in - Variable 2.3 mph - N/A   Clear
7:00 AM 55.4 °F - 46.4 °F 72% 30.06 in - SE 4.6 mph - N/A   Clear
7:30 AM 55.4 °F - 50.0 °F 82% 30.06 in - Calm Calm - N/A   Clear
8:00 AM 59 °F - 51 °F 67%  in 9 mi NE 1.2 mph - -   Scattered Clouds
8:00 AM 57.2 °F - 51.8 °F 82% 30.06 in - Calm Calm - N/A   Clear
8:30 AM 62.6 °F - 50.0 °F 63% 30.06 in - Calm Calm - N/A   Clear
9:00 AM 66.2 °F - 51.8 °F 60% 30.06 in - Calm Calm - N/A   Clear
9:30 AM 68.0 °F - 53.6 °F 60% 30.06 in - Variable 1.2 mph - N/A   Clear
10:00 AM 71.6 °F - 55.4 °F 57% 30.06 in - Calm Calm - N/A   Clear
10:30 AM 73.4 °F - 57.2 °F 57% 30.06 in 6.2 mi ESE 3.5 mph - N/A   Partly Cloudy
11:00 AM 77.0 °F - 55.4 °F 47% 30.04 in - ESE 3.5 mph - N/A   Clear
11:30 AM 80.6 °F 80.5 °F 55.4 °F 42% 30.04 in - Variable 2.3 mph - N/A   Clear
12:00 PM 82.4 °F 81.4 °F 53.6 °F 37% 30.04 in 6.2 mi East 3.5 mph - N/A   Partly Cloudy
12:30 PM 86.0 °F - 46.4 °F 25% 30.04 in 6.2 mi Variable 2.3 mph - N/A   Partly Cloudy
1:00 PM 86.0 °F - 44.6 °F 23% 30.04 in 6.2 mi Variable 2.3 mph - N/A   Partly Cloudy
1:30 PM 87.8 °F - 48.2 °F 25% 30.04 in 6.2 mi North 3.5 mph - N/A   Partly Cloudy
2:00 PM 90 °F - 44 °F 12%  in 12 mi WNW 5.8 mph - -   Partly Cloudy
2:00 PM 87.8 °F - 44.6 °F 22% 30.01 in 6.2 mi Variable 4.6 mph - N/A   Scattered Clouds
2:30 PM 89.6 °F - 44.6 °F 21% 30.01 in 6.2 mi WNW 9.2 mph - N/A   Scattered Clouds
3:00 PM 89.6 °F - 39.2 °F 17% 29.98 in 6.2 mi NW 11.5 mph - N/A   Scattered Clouds
3:30 PM 89.6 °F - 44.6 °F 21% 29.98 in 6.2 mi NW 8.1 mph - N/A   Scattered Clouds
4:00 PM 89.6 °F - 44.6 °F 21% 29.98 in 6.2 mi WNW 8.1 mph - N/A   Scattered Clouds
4:30 PM 89.6 °F - 41.0 °F 18% 29.98 in 6.2 mi West 10.4 mph - N/A   Scattered Clouds
5:00 PM 89.6 °F - 42.8 °F 20% 29.95 in 6.2 mi WNW 10.4 mph - N/A   Scattered Clouds
5:30 PM 86.0 °F - 42.8 °F 22% 29.98 in 6.2 mi NW 13.8 mph 27.6 mph N/A   Mostly Cloudy
6:00 PM 87.8 °F - 44.6 °F 22% 29.98 in 6.2 mi WNW 10.4 mph - N/A   Scattered Clouds
6:30 PM 84.2 °F - 42.8 °F 23% 29.98 in 6.2 mi WSW 15.0 mph - N/A   Scattered Clouds
7:00 PM 80.6 °F - 41.0 °F 24% 29.98 in 6.2 mi WSW 25.3 mph 38.0 mph N/A   Scattered Clouds
7:30 PM 80.6 °F - 37.4 °F 21% 29.98 in 6.2 mi WSW 21.9 mph - N/A   Scattered Clouds
8:00 PM 77 °F - 41 °F 18%  in 11 mi SW 28.8 mph - -   Partly Cloudy
8:00 PM 77.0 °F - 42.8 °F 29% 29.98 in 6.2 mi SW 28.8 mph 41.4 mph N/A   Scattered Clouds
8:30 PM 77.0 °F - 41.0 °F 28% 30.01 in 6.2 mi WSW 23.0 mph 38.0 mph N/A   Scattered Clouds
9:00 PM 75.2 °F - 42.8 °F 31% 29.98 in 6.2 mi WSW 17.3 mph - N/A   Scattered Clouds
9:30 PM 75.2 °F - 42.8 °F 31% 29.98 in 6.2 mi NW 9.2 mph - N/A   Scattered Clouds
10:00 PM 73.4 °F - 41.0 °F 31% 29.98 in 6.2 mi NNW 3.5 mph - N/A   Scattered Clouds
10:30 PM 75.2 °F - 39.2 °F 27% 29.98 in 6.2 mi Variable 2.3 mph - N/A   Partly Cloudy
11:00 PM 73.4 °F - 41.0 °F 31% 30.01 in 6.2 mi SSE 10.4 mph - N/A   Partly Cloudy
11:30 PM 69.8 °F - 44.6 °F 40% 30.04 in 6.2 mi SE 8.1 mph - N/A   Partly Cloudy